Location: Tierra Monte Subdivision
(35.2092°N, 106.4864°W)
Time: 15:54:31
(UTC+00:00)

FREGAT/IRIS - Pass Details

Date: 30 March 2020
Orbit: 327 x 333 km, 96.9° (Epoch: 28 May)

Event Time Altitude Azimuth Distance (km) Brightness Sun altitude
Exits shadow 02:00:53 11° 98° (E) 1,197 4.4 -8.0°
Maximum altitude 02:02:00 14° 72° (ENE) 1,090 4.3 -8.2°
Drops below altitude 10° 02:03:27 10° 39° (NE) 1,276 4.9 -8.5°
Sets 02:06:00 0° 11° (NNE) 2,124 6.3 -9.0°
